Vertical_Velocity
-0 -6 0 0 2 -3 -4 -0 1 -1 2 2 2 2 1 -2 -1 5 -5 -7 -1 -5 1 -3 0 4 3 1 1 -1 4 0 5 1 -0 -6 -2 -1 -0 1 -5 -7 -2 -1 4 0 -11 1 4 1 -3 0 -2 0
-8 -7 -6 -5 3 2 -0 -0 -1 -1 1 0 1 2 2 0 -1 -1 1 1 -1 -3 -1 -4 -9 -10 0 6 1 1 2 -4 7 7 1 4 -1 -2 -1 -4 1 -6 -6 -6 -5 -1 1 2 2 2 1 0 1 1
-7 2 -1 -8 -5 -2 2 -0 -3 -0 -1 0 0 1 3 4 4 0 -0 -3 -3 -5 -6 -1 -1 3 -1 5 8 -2 -3 5 1 -6 5 3 1 -1 -6 -8 1 -3 3 -5 0 -1 1 1 -2 -2 0 -1 -1 1
-0 -2 -0 -0 3 -2 1 2 -3 1 1 0 -2 0 2 2 3 -4 -2 -2 1 -2 -8 12 2 4 1 2 1 2 6 20 10 0 -2 1 -0 -1 -2 -3 -1 1 3 -1 -8 0 4 3 2 0 -2 1 -2 -2
-5 1 3 1 0 -2 -2 0 -3 -0 -0 0 -3 -1 5 -5 -1 1 0 1 1 2 -3 -4 -2 1 -1 0 4 0 3 4 8 10 10 -4 -5 0 -0 0 -5 -2 -1 -6 -2 -1 -0 3 2 -1 -1 0 -1 -1
-2 6 -1 -1 -3 2 2 -0 -2 0 2 2 1 0 -2 3 0 1 -1 0 0 -0 -6 -4 -2 -1 -5 2 5 3 6 0 5 16 28 -3 -4 2 -2 -5 -1 -0 -0 -2 -1 -1 -2 0 -1 -0 -2 -2 -2 -1
-1 -4 4 -4 1 -2 3 -1 -1 -1 -0 -1 1 4 -0 1 1 1 -1 1 -2 -0 -3 -7 -4 -3 -10 -4 -1 -1 3 -1 12 11 -3 20 2 4 -4 -8 4 1 -1 -2 1 -1 -1 -0 -3 1 -2 1 0 -0
4 2 5 -3 -1 1 -1 1 -1 -1 1 1 3 0 -0 1 0 -0 1 1 -0 -1 -2 -3 0 -4 -0 1 0 1 4 8 4 -1 -4 10 6 -1 -11 3 0 1 1 -1 0 0 -3 -1 -0 -1 -2 -0 1 1
2 -3 1 -1 -7 -3 -1 -1 -1 -0 0 0 0 -1 -0 1 0 3 1 -1 -2 -2 -0 -0 4 3 14 5 11 4 -0 -12 23 -3 8 7 -2 -13 -2 -2 1 1 -0 0 0 -1 -2 -4 -3 0 0 0 -0 -1
2 -5 -7 3 -3 -5 -4 -2 -3 1 0 -1 1 -3 0 1 0 1 -3 -2 -1 -0 0 3 5 7 6 -7 6 4 -13 21 12 0 0 -1 -9 -6 -4 -1 -0 1 -0 1 1 3 1 -3 -2 -2 -1 -1 -2 0
-2 -3 -4 -2 -4 -5 -6 -3 -2 -2 1 1 -2 -4 1 0 -0 1 -0 -1 0 1 1 0 6 1 15 22 18 15 8 1 1 -3 -1 1 -9 2 -1 0 3 2 0 0 1 -1 -1 -0 4 2 -1 -1 1 -0
-2 -5 -4 -5 -5 -5 -6 -2 -2 -1 -4 -0 -0 -2 -4 2 1 1 -0 -1 1 3 3 -0 1 6 8 -2 3 4 2 -0 -4 -2 1 -2 -4 -1 2 1 1 1 1 2 1 -4 -3 -2 -3 -1 1 1 -2 -2
-2 -2 -4 -8 -6 -6 -7 -4 -1 -4 -3 -1 -0 0 -2 2 1 -0 -2 3 0 3 4 0 -0 2 7 3 1 -1 0 0 1 2 -1 1 1 2 3 2 -0 -0 1 1 -0 -4 -4 -2 1 -0 1 0 3 4
-5 -0 -4 -3 -4 -1 -8 -6 -1 -3 -5 -5 1 0 -1 3 4 5 6 5 2 -1 1 -1 -1 -1 5 3 0 1 1 -1 -0 -2 -2 0 0 0 1 1 -0 1 0 -0 -0 -3 -10 7 7 6 5 7 7 1
-1 -1 -2 -1 -5 -1 -6 -7 -4 -5 -5 -3 0 -1 -3 -2 -3 3 1 2 1 1 0 1 -3 1 -0 4 1 -1 -1 -0 -1 -2 0 -1 -0 1 2 2 -0 1 0 2 0 -3 -5 -6 -4 -6 -4 -3 -0 1
-3 -1 -1 -2 -4 -8 -3 -4 -5 -6 -5 -2 -3 -2 2 0 0 -2 -1 -4 1 0 1 0 -0 2 3 1 0 -1 -1 -2 -0 -1 1 -1 -1 0 1 1 1 1 -1 0 0 -0 1 1 2 -0 -3 -1 -0 -0
-4 -2 -2 4 -3 -3 -3 -2 -4 -6 -8 -2 -2 0 -1 2 3 0 -1 -2 -0 -0 1 0 4 1 -0 1 -2 0 -0 -3 0 -1 -1 -2 -1 -1 0 1 0 1 1 1 1 1 -0 -1 -2 -2 -2 -3 -2 -1
-3 -7 -1 1 -5 -1 0 -1 -1 -4 -6 -3 -3 -1 -1 -1 -0 1 1 -1 -1 3 1 1 1 2 -1 -3 -1 -1 1 2 2 -2 -1 1 1 0 0 0 0 -0 -1 -1 -2 -2 -1 -2 -1 -2 -2 -0 -0 -1
0 -6 -5 -1 3 -5 -2 -6 1 -3 -2 -5 -2 -1 -2 0 1 -1 0 2 -0 1 1 -1 -1 -5 -4 -2 4 2 2 0 -0 -2 -2 0 2 1 1 1 0 -1 -1 -0 -0 -1 -2 -2 -2 -1 -0 -1 -1 1
-5 -4 -0 2 -3 -5 -3 -3 3 -1 -2 -3 -3 -2 -2 -1 -1 -1 -1 -1 1 0 -1 -10 -9 7 3 3 4 1 1 2 1 1 0 0 1 -0 -0 -0 -0 -1 -1 -1 -1 -0 -1 -1 1 1 0 0 -0 -1
-7 -1 9 1 -2 -3 -4 -3 -1 -3 -1 1 -5 -3 -4 -2 0 -1 -3 2 -2 1 -5 -2 -1 13 5 3 -9 -3 -0 1 -1 -1 1 -1 -1 -1 0 -0 -0 -1 -1 -0 -1 -2 -0 0 -0 -0 -2 -1 0 1
-14 -3 9 2 -5 -6 -2 -4 -3 -2 -2 1 -1 -0 -5 -5 -3 -2 -6 -2 -1 8 4 1 0 -3 -2 -1 3 -3 -4 0 1 0 1 1 -1 -1 -0 -0 -1 -0 1 2 1 1 -0 -0 -1 -1 0 0 -0 -1
-3 -3 2 2 2 -3 -9 1 -6 1 -1 -5 -3 -2 -4 -5 -7 -3 -6 -6 4 6 -0 -3 0 1 -1 -1 -1 1 3 2 2 1 1 1 1 -1 -1 -0 -1 -1 -1 -3 -1 -0 1 -0 -0 -1 -1 -1 -1 -2
-3 -7 -2 1 1 -3 -3 -2 -2 -1 -3 2 2 -3 -5 -3 -4 -7 -8 1 2 2 1 2 1 2 2 3 5 2 -1 -1 -0 0 1 1 0 -1 -0 -2 -0 -1 0 -0 -1 -1 -0 -0 1 0 -1 -0 -0 -1
-5 -5 -5 -3 1 -1 -1 -4 -2 2 0 1 -1 1 -5 -2 -5 -7 -4 -1 1 2 -1 1 1 2 4 3 3 2 2 3 2 1 0 1 -1 -1 1 -0 -1 -1 -2 -0 1 1 -1 -1 -1 -1 -1 -2 -3 -1
-10 -1 -4 -1 -1 2 5 -0 -1 -2 2 2 -2 -1 -1 -3 -4 -5 -1 -2 -1 -4 -2 1 -1 -1 1 2 2 3 2 2 2 4 -0 0 1 2 2 0 1 1 -2 -2 -2 -1 -1 -2 -1 -1 -1 -1 -1 -1
-18 -6 2 2 -1 6 -1 -0 0 1 1 -1 -3 -0 2 -2 -7 -2 -0 -3 -3 -2 0 2 3 1 4 4 3 3 1 1 2 3 1 -1 0 -0 0 -2 -1 0 0 -0 -1 -0 -0 -2 -2 -1 -0 -1 -3 -3
-6 -9 -5 9 2 7 0 1 -2 1 -1 0 2 -1 -6 -3 -6 -2 -1 -2 -0 -0 0 1 1 1 0 0 -2 -3 -1 -0 0 0 0 2 -0 -1 -1 -1 -2 -1 -0 0 -0 -0 -1 -0 0 0 -1 -1 0 -4
-9 3 6 3 2 -4 -9 -1 -3 2 4 -2 -7 -4 -8 -9 -1 -1 1 -2 -1 1 0 1 1 -0 -2 -2 -0 -0 -0 0 -1 -0 -0 1 3 -1 -2 -1 -1 -1 -1 -1 -2 -2 -1 0 1 -1 -2 -2 -0 -0
-1 3 -7 2 5 -10 -1 7 -8 5 2 -3 -4 -8 -8 -7 4 -1 -2 -2 -1 4 3 2 3 -1 1 -1 -0 -1 0 -0 0 -1 -2 1 0 -1 -1 -1 -1 -3 -3 -1 1 -0 -4 -2 -0 -0 -1 1 0 -1
2 4 -2 5 -11 -4 1 4 1 2 -2 -6 -3 -10 -7 -12 -5 -4 -3 1 -1 -0 0 1 0 0 -1 2 2 0 3 0 -0 -0 -0 -1 -1 -1 -0 0 -1 -1 -1 -1 -2 -2 -2 -2 -3 -1 0 -0 -2 -0
3 -2 5 -9 -10 6 1 -8 -5 -5 -6 -4 -5 -5 -3 -8 -20 -3 -1 0 5 4 1 -2 -2 1 -1 1 0 -1 1 -1 -0 -0 0 1 0 -0 -1 -0 0 0 -1 -2 -2 -1 -1 0 -0 -0 2 0 -1 -1
3 2 5 2 -7 -8 -3 12 -4 -7 -3 -8 -7 -1 -3 -3 -20 -7 -0 4 1 0 -3 -3 -2 1 2 1 0 -0 -1 -1 -1 -1 -1 -1 0 1 2 2 0 1 -0 -0 -1 -2 -2 -1 -0 -0 -0 1 -1 -1
Height
3039 3036 3033 3030 3027 3025 3023 3020 3017 3013 3011 3009 3008 3006 3004 3002 3001 3002 3002 3001 3002 3002 3002 3001 3002 3003 3003 3005 3007 3010 3014 3013 3016 3018 3019 3020 3021 3022 3023 3023 3024 3026 3029 3030 3032 3034 3028 3025 3028 3030 3030 3030 3030 3030
3036 3034 3031 3029 3026 3023 3021 3017 3014 3012 3009 3007 3005 3003 3001 2999 2996 2995 2995 2993 2992 2992 2995 2995 2994 2993 2995 2996 2998 3001 3004 3006 3010 3012 3013 3014 3014 3015 3017 3019 3020 3023 3023 3023 3025 3023 3023 3023 3025 3026 3027 3027 3027 3028
3032 3029 3028 3026 3023 3020 3018 3014 3011 3009 3006 3005 3002 3000 2999 2996 2994 2991 2989 2987 2985 2980 2980 2979 2980 2982 2980 2983 2986 2988 2995 3001 3001 3004 3008 3009 3009 3010 3011 3013 3015 3016 3018 3019 3021 3021 3022 3023 3022 3023 3023 3024 3024 3024
3028 3025 3025 3025 3021 3017 3015 3011 3009 3006 3004 3001 2999 2996 2994 2992 2990 2987 2984 2981 2979 2976 2971 2975 2973 2973 2970 2970 2971 2975 2985 2991 2995 2997 3000 3003 3005 3006 3007 3009 3010 3012 3013 3014 3014 3016 3018 3018 3018 3018 3018 3018 3019 3020
3024 3022 3020 3019 3017 3014 3011 3008 3005 3003 3000 2998 2995 2993 2991 2988 2985 2982 2979 2976 2974 2975 2970 2968 2966 2964 2961 2959 2960 2963 2970 2978 2985 2991 2992 2996 2999 3002 3003 3004 3003 3006 3007 3008 3008 3010 3011 3013 3013 3011 3012 3012 3013 3014
3019 3017 3017 3015 3013 3010 3008 3004 3002 3000 2997 2994 2991 2989 2987 2984 2981 2977 2974 2974 2972 2971 2968 2962 2961 2958 2954 2949 2950 2953 2959 2967 2970 2980 2983 2989 2993 2998 2998 2997 2999 3000 3001 3003 3003 3004 3005 3005 3004 3004 3004 3005 3005 3007
3016 3014 3011 3011 3009 3007 3004 3002 2999 2996 2993 2990 2988 2986 2984 2982 2979 2977 2977 2976 2973 2969 2965 2960 2958 2955 2948 2944 2945 2946 2951 2960 2964 2976 2982 2984 2989 2992 2992 2993 2995 2996 2997 2998 2999 2999 2999 2998 2998 2998 2997 2997 2998 2999
3011 3009 3007 3007 3005 3004 3001 2998 2996 2992 2990 2987 2985 2983 2982 2980 2979 2977 2975 2973 2971 2967 2964 2961 2957 2952 2948 2944 2945 2947 2951 2959 2967 2973 2979 2981 2985 2987 2988 2990 2990 2991 2992 2993 2993 2993 2992 2993 2993 2992 2992 2991 2992 2993
3007 3006 3004 3004 3003 3002 2999 2996 2993 2990 2987 2984 2982 2980 2979 2978 2978 2976 2974 2971 2970 2971 2965 2963 2958 2957 2953 2951 2952 2955 2958 2964 2967 2971 2974 2978 2979 2981 2985 2986 2986 2987 2988 2988 2989 2988 2987 2987 2986 2985 2986 2986 2986 2987
3005 3004 3003 3002 3002 3000 2997 2994 2992 2989 2985 2982 2981 2979 2978 2977 2976 2974 2971 2971 2969 2969 2966 2964 2962 2959 2959 2958 2957 2961 2964 2964 2965 2969 2972 2974 2975 2979 2981 2981 2982 2983 2984 2984 2985 2984 2981 2979 2978 2979 2979 2979 2980 2980
3005 3003 3002 3001 3000 2998 2996 2993 2990 2987 2984 2981 2979 2978 2977 2975 2973 2971 2970 2970 2970 2969 2968 2966 2963 2961 2961 2960 2960 2962 2962 2964 2966 2969 2971 2971 2970 2973 2975 2976 2976 2978 2979 2980 2980 2978 2976 2974 2973 2972 2972 2973 2973 2974
3005 3003 3001 2999 2997 2996 2994 2992 2989 2987 2983 2981 2978 2975 2974 2972 2971 2972 2971 2972 2971 2970 2969 2967 2965 2963 2962 2962 2963 2963 2963 2964 2965 2967 2968 2965 2966 2967 2969 2971 2972 2973 2975 2976 2977 2973 2969 2966 2964 2963 2963 2966 2968 2969
3006 3003 3000 2997 2995 2995 2993 2991 2988 2985 2983 2979 2977 2975 2975 2974 2973 2972 2972 2972 2971 2970 2968 2966 2965 2963 2962 2962 2963 2963 2962 2963 2964 2964 2963 2961 2962 2964 2965 2968 2970 2971 2973 2974 2973 2971 2966 2962 2961 2959 2959 2961 2963 2965
3004 3002 3000 2997 2995 2994 2992 2990 2988 2986 2983 2980 2977 2977 2977 2975 2974 2974 2973 2972 2971 2968 2967 2965 2965 2963 2962 2962 2962 2962 2962 2962 2962 2961 2959 2959 2959 2960 2963 2966 2968 2970 2971 2971 2971 2970 2967 2963 2961 2961 2960 2960 2960 2961
3000 3000 2999 2998 2995 2992 2991 2989 2988 2985 2983 2981 2979 2978 2978 2976 2975 2974 2972 2970 2968 2965 2963 2963 2963 2963 2962 2961 2961 2961 2961 2960 2959 2957 2957 2957 2957 2959 2962 2964 2967 2968 2969 2970 2970 2969 2967 2965 2964 2963 2962 2960 2959 2957
2995 2996 2995 2995 2994 2993 2990 2988 2987 2985 2982 2981 2980 2980 2978 2975 2973 2971 2970 2968 2966 2964 2962 2961 2961 2961 2960 2959 2959 2958 2959 2957 2957 2956 2955 2954 2955 2958 2961 2963 2965 2967 2968 2968 2968 2968 2967 2966 2965 2964 2962 2960 2957 2955
2992 2991 2991 2989 2989 2989 2988 2986 2984 2983 2982 2981 2980 2977 2975 2972 2970 2967 2965 2964 2963 2963 2961 2961 2959 2958 2957 2956 2956 2955 2955 2956 2956 2955 2954 2954 2955 2958 2960 2962 2964 2965 2965 2965 2965 2965 2964 2963 2962 2960 2958 2957 2955 2953
2989 2988 2987 2987 2985 2983 2983 2982 2981 2979 2978 2978 2977 2975 2973 2970 2967 2964 2961 2959 2958 2957 2957 2958 2956 2955 2954 2953 2954 2954 2953 2954 2954 2953 2952 2952 2955 2957 2958 2960 2961 2961 2961 2962 2961 2960 2959 2958 2956 2955 2954 2952 2951 2950
2983 2983 2984 2983 2982 2981 2980 2978 2977 2975 2972 2973 2973 2971 2969 2967 2965 2961 2958 2955 2952 2952 2952 2952 2952 2948 2949 2951 2952 2952 2952 2952 2952 2952 2952 2952 2953 2955 2956 2956 2957 2957 2956 2956 2955 2954 2952 2951 2950 2948 2946 2945 2944 2943
2977 2978 2979 2979 2979 2978 2976 2974 2971 2969 2967 2967 2967 2966 2964 2962 2960 2957 2954 2951 2948 2946 2944 2943 2944 2946 2947 2946 2946 2946 2947 2948 2949 2950 2950 2951 2951 2951 2951 2951 2951 2950 2950 2949 2948 2947 2945 2944 2942 2941 2940 2939 2937 2936
2972 2972 2973 2973 2973 2973 2971 2968 2965 2964 2961 2959 2960 2959 2958 2957 2954 2951 2948 2946 2942 2938 2935 2935 2936 2939 2938 2939 2940 2942 2943 2942 2943 2944 2945 2945 2945 2945 2944 2944 2943 2943 2942 2941 2940 2939 2939 2938 2936 2935 2933 2932 2931 2930
2966 2967 2967 2966 2967 2966 2964 2962 2962 2959 2957 2954 2953 2953 2951 2950 2948 2945 2941 2937 2933 2931 2928 2927 2926 2928 2930 2931 2931 2932 2933 2935 2936 2937 2937 2938 2938 2938 2938 2937 2936 2936 2935 2934 2933 2932 2931 2930 2929 2928 2927 2925 2924 2923
2958 2961 2961 2960 2961 2959 2957 2955 2955 2953 2952 2948 2947 2946 2945 2943 2941 2939 2934 2930 2926 2923 2920 2919 2919 2920 2922 2923 2924 2925 2927 2928 2929 2929 2930 2931 2931 2931 2931 2930 2929 2929 2928 2927 2926 2925 2924 2923 2921 2920 2919 2919 2918 2916
2949 2953 2953 2954 2952 2949 2947 2947 2948 2947 2946 2944 2942 2940 2938 2937 2936 2932 2928 2925 2921 2918 2915 2913 2912 2912 2913 2916 2917 2919 2920 2921 2921 2922 2924 2924 2924 2924 2924 2923 2923 2922 2921 2920 2919 2918 2916 2915 2914 2913 2912 2911 2910 2909
2944 2947 2948 2944 2942 2940 2938 2940 2941 2941 2940 2939 2937 2935 2934 2933 2931 2927 2923 2921 2917 2914 2912 2909 2908 2908 2909 2910 2912 2913 2914 2914 2915 2915 2916 2917 2917 2917 2916 2916 2915 2913 2913 2912 2911 2910 2908 2908 2907 2906 2904 2903 2902 2901
2935 2937 2936 2933 2931 2932 2932 2933 2934 2935 2934 2934 2933 2930 2929 2928 2926 2923 2921 2919 2917 2913 2910 2907 2905 2904 2904 2905 2906 2907 2908 2909 2909 2910 2909 2909 2909 2909 2908 2908 2907 2906 2905 2904 2902 2900 2899 2898 2897 2896 2895 2893 2892 2892
2923 2923 2922 2922 2923 2925 2927 2928 2929 2929 2928 2928 2926 2926 2926 2923 2920 2920 2918 2916 2914 2911 2909 2908 2905 2903 2903 2903 2903 2903 2904 2904 2904 2904 2903 2903 2902 2901 2901 2900 2899 2898 2896 2894 2893 2892 2891 2889 2887 2886 2885 2884 2883 2882
2911 2912 2914 2916 2918 2919 2921 2922 2921 2921 2921 2920 2919 2919 2919 2917 2917 2916 2914 2912 2910 2908 2905 2905 2904 2903 2902 2901 2900 2900 2899 2899 2898 2897 2896 2896 2895 2894 2893 2892 2890 2888 2886 2885 2883 2881 2879 2878 2876 2875 2874 2873 2873 2870
2901 2902 2906 2908 2912 2914 2914 2913 2912 2912 2913 2913 2911 2909 2908 2906 2906 2908 2907 2906 2904 2902 2900 2898 2898 2897 2896 2896 2895 2894 2893 2892 2891 2890 2889 2888 2887 2886 2884 2881 2879 2878 2876 2874 2872 2870 2868 2866 2864 2863 2861 2860 2859 2857
2891 2897 2902 2902 2902 2901 2903 2904 2902 2903 2902 2901 2899 2896 2894 2894 2896 2898 2897 2897 2896 2895 2893 2891 2890 2889 2890 2889 2888 2887 2886 2885 2883 2882 2880 2879 2878 2876 2874 2871 2869 2867 2864 2863 2861 2858 2855 2852 2850 2848 2846 2844 2842 2840
2890 2891 2892 2892 2892 2894 2894 2893 2891 2890 2889 2887 2886 2884 2882 2881 2882 2885 2886 2887 2886 2885 2884 2883 2882 2881 2881 2880 2880 2879 2878 2877 2875 2873 2872 2870 2868 2866 2863 2861 2859 2856 2854 2851 2848 2845 2842 2839 2836 2834 2831 2829 2827 2827
2881 2881 2883 2883 2883 2884 2883 2881 2879 2876 2874 2873 2873 2873 2873 2872 2869 2873 2875 2877 2877 2876 2875 2874 2874 2874 2873 2873 2872 2871 2870 2868 2867 2865 2863 2861 2858 2856 2853 2850 2847 2843 2840 2837 2833 2830 2827 2824 2822 2821 2820 2820 2819 2819
2871 2873 2873 2874 2874 2874 2875 2874 2870 2866 2864 2863 2863 2863 2863 2863 2861 2864 2865 2866 2866 2866 2866 2866 2866 2866 2866 2865 2864 2863 2862 2861 2859 2857 2854 2852 2849 2846 2843 2839 2835 2831 2827 2823 2820 2817 2816 2815 2815 2815 2815 2815 2815 2814